Regional Weather Roundup
Issued by NWS

Home | Current Version | Previous Version | Graphics & Text | Print | Product List | Glossary On
Versions: 1 2 3 4 5 6 7 8 9 10 11 12 13 14 15 16 17 18 19 20 21 22 23 24 25 26 27 28 29 30 31 32 33 34 35 36 37 38 39 40 41 42 43 44 45 46 47 48 49 50
958
ASUS43 KLSX 282110
RWRMO

WEATHER SUMMARY FOR MISSOURI
NATIONAL WEATHER SERVICE SPRINGFIELD MO
400 PM CDT FRI APR 28 2017

NOTE: "FAIR" INDICATES FEW OR NO CLOUDS BELOW 12,000 FEET WITH NO
       SIGNIFICANT WEATHER AND/OR OBSTRUCTIONS TO VISIBILITY.
       CURRENT SKY AND/OR WEATHER CONDITIONS ARE NOT AVAILABLE FOR
       CHILLICOTHE AND FARMINGTON.

MOZ001>031-035>038-043-044-053-054-282200-
...NORTHERN AND WESTERN MISSOURI...

CITY           SKY/WX    TMP DP  RH WIND       PRES   REMARKS
KANSAS CTY INT DRZL/FOG  54  53  97 NE9       29.71R VSB 1/4
KANSAS C DTWN  CLOUDY    63  58  83 S5        29.70R
LEE`S SUMMIT   CLOUDY    62  57  83 SW8       29.71R
ST JOSEPH      CLOUDY    47  46  97 NE10      29.75R
CHILLICOTHE      N/A     50  48  93 VRB6      29.76R
KIRKSVILLE     CLOUDY    49  31  49 N12       29.76S HAZE

$$
MOZ066>068-077>081-088>096-101>105-282200-
...SOUTHWEST MISSOURI...

CITY           SKY/WX    TMP DP  RH WIND       PRES   REMARKS
SPRINGFIELD    CLOUDY    64  60  87 S9        29.71R
JOPLIN         CLOUDY    67  62  84 VRB5      29.68F
BRANSON        CLOUDY    63  63 100 SE3       29.73R FOG

$$
MOZ032>034-039>042-045>050-055>058-069>072-282200-
...CENTRAL MISSOURI...

CITY           SKY/WX    TMP DP  RH WIND       PRES   REMARKS
COLUMBIA       CLOUDY    59  56  89 SE12      29.73S
JEFFERSON CITY CLOUDY    60  56  86 SE9       29.74S FOG
ROLLA          CLOUDY    57  57 100 E7        29.73S FOG
SEDALIA        CLOUDY    61  59  93 SE10      29.73R
WHITEMAN AFB   CLOUDY    62  62 100 S9        29.70S
OSAGE BEACH    CLOUDY    59  58  96 E6        29.73S FOG

$$
MOZ051-052-059>065-282200-
...EAST CENTRAL MISSOURI...

CITY           SKY/WX    TMP DP  RH WIND       PRES   REMARKS
ST LOUIS INTL  DRIZZLE   57  55  93 E8        29.78F FOG
SPIRIT OF STL  CLOUDY    57  56  96 E9        29.76F FOG
ST CHARLES     CLOUDY    56  56 100 E9        29.78S FOG

$$
MOZ072>076-082>087-097>100-106>115-282200-
...SOUTH CENTRAL AND SOUTHEAST MISSOURI...

CITY           SKY/WX    TMP DP  RH WIND       PRES   REMARKS
CAPE GIRARDEAU LGT RAIN  71  67  87 S10       29.73F
FARMINGTON     LGT RAIN  61  61 100 S5        29.78R FOG
POPLAR BLUFF   CLOUDY    70  68  93 W3        29.73F
WEST PLAINS    CLOUDY    62  61  96 S8        29.77R FOG

$$




USA.gov is the U.S. government's official web portal to all federal, state and local government web resources and services.